| time (UTC) | temp C | wind direction | speed KPH | gust KPH | rain 1hr cm | rain 24hr cm | rain mn cm | humidity % | barometer mb |
| 20260510180356 | 13 | 47 | 6.4 | 14.5 | 0.00 | 0.00 | 0.00 | 73 | 1026.3 |
| 20260510175853 | 13 | 24 | 6.4 | 12.9 | 0.00 | 0.00 | 0.00 | 71 | 1026.5 |
| 20260510175348 | 14 | 336 | 9.7 | 25.7 | 0.00 | 0.00 | 0.00 | 70 | 1026.2 |
| 20260510174844 | 15 | 5 | 11.3 | 16.1 | 0.00 | 0.00 | 0.00 | 67 | 1026.2 |
| 20260510174342 | 15 | 70 | 11.3 | 22.5 | 0.00 | 0.00 | 0.00 | 66 | 1025.8 |
| 20260510173838 | 14 | 51 | 6.4 | 22.5 | 0.00 | 0.00 | 0.00 | 67 | 1025.6 |
| 20260510173334 | 14 | 49 | 22.5 | 33.8 | 0.00 | 0.00 | 0.00 | 69 | 1025.4 |
| 20260510172831 | 15 | 20 | 4.8 | 17.7 | 0.00 | 0.00 | 0.00 | 65 | 1025.1 |
| 20260510172327 | 15 | 48 | 14.5 | 24.1 | 0.00 | 0.00 | 0.00 | 64 | 1024.8 |
| 20260510171823 | 15 | 56 | 9.7 | 25.7 | 0.00 | 0.00 | 0.00 | 64 | 1024.4 |
| 20260510171321 | 13 | 338 | 17.7 | 35.4 | 0.00 | 0.00 | 0.00 | 69 | 1024.4 |
| 20260510170818 | 15 | 67 | 14.5 | 20.9 | 0.00 | 0.00 | 0.00 | 63 | 1024.3 |
| 20260510170314 | 16 | 36 | 19.3 | 35.4 | 0.00 | 0.00 | 0.00 | 62 | 1024.2 |
| 20260510165809 | 15 | 38 | 25.7 | 37.0 | 0.00 | 0.00 | 0.00 | 63 | 1024.2 |
| 20260510165307 | 15 | 12 | 12.9 | 27.4 | 0.00 | 0.00 | 0.00 | 62 | 1023.7 |
| 20260510164804 | 15 | 54 | 16.1 | 33.8 | 0.00 | 0.00 | 0.00 | 64 | 1023.9 |
| 20260510164301 | 15 | 58 | 14.5 | 37.0 | 0.00 | 0.00 | 0.00 | 64 | 1023.7 |
| 20260510163800 | 15 | 41 | 16.1 | 27.4 | 0.00 | 0.00 | 0.00 | 62 | 1023.9 |
| 20260510163256 | 16 | 57 | 16.1 | 24.1 | 0.00 | 0.00 | 0.00 | 61 | 1023.5 |
| 20260510162756 | 15 | 57 | 11.3 | 20.9 | 0.00 | 0.00 | 0.00 | 63 | 1023.4 |
| 20260510162254 | 15 | 340 | 16.1 | 40.2 | 0.00 | 0.00 | 0.00 | 65 | 1023.6 |
| 20260510161744 | 15 | 357 | 17.7 | 37.0 | 0.00 | 0.00 | 0.00 | 65 | 1023.4 |
| 20260510161240 | 15 | 340 | 6.4 | 29.0 | 0.00 | 0.00 | 0.00 | 65 | 1023.2 |
| 20260510160738 | 14 | 64 | 9.7 | 33.8 | 0.00 | 0.00 | 0.00 | 66 | 1023.0 |
| 20260510160233 | 15 | 69 | 24.1 | 37.0 | 0.00 | 0.00 | 0.00 | 66 | 1023.0 |
| 20260510155729 | 14 | 25 | 12.9 | 37.0 | 0.00 | 0.00 | 0.00 | 68 | 1022.6 |
| 20260510155225 | 14 | 16 | 9.7 | 35.4 | 0.00 | 0.00 | 0.00 | 67 | 1022.6 |
| 20260510154217 | 13 | 34 | 16.1 | 24.1 | 0.00 | 0.00 | 0.00 | 69 | 1022.8 |
| 20260510153208 | 13 | 58 | 14.5 | 17.7 | 0.00 | 0.00 | 0.00 | 68 | 1022.7 |
| 20260510152705 | 13 | 28 | 6.4 | 25.7 | 0.00 | 0.00 | 0.00 | 71 | 1022.6 |
| 20260510152201 | 13 | 337 | 14.5 | 29.0 | 0.00 | 0.00 | 0.00 | 71 | 1022.3 |
| 20260510151658 | 13 | 10 | 9.7 | 14.5 | 0.00 | 0.00 | 0.00 | 72 | 1022.3 |
| 20260510151156 | 13 | 325 | 16.1 | 24.1 | 0.00 | 0.00 | 0.00 | 74 | 1022.2 |
| 20260510150652 | 13 | 67 | 12.9 | 33.8 | 0.00 | 0.00 | 0.00 | 75 | 1021.9 |
| 20260510150147 | 13 | 349 | 14.5 | 29.0 | 0.00 | 0.00 | 0.00 | 75 | 1022.0 |
| 20260510145644 | 13 | 46 | 11.3 | 24.1 | 0.00 | 0.00 | 0.00 | 75 | 1021.7 |
| 20260510145140 | 13 | 301 | 9.7 | 35.4 | 0.00 | 0.00 | 0.00 | 75 | 1021.6 |
| 20260510144636 | 14 | 6 | 11.3 | 29.0 | 0.00 | 0.00 | 0.00 | 75 | 1021.6 |
| 20260510144133 | 13 | 5 | 6.4 | 20.9 | 0.00 | 0.00 | 0.00 | 75 | 1021.3 |
| 20260510143628 | 14 | 280 | 9.7 | 17.7 | 0.00 | 0.00 | 0.00 | 75 | 1021.1 |
| 20260510143125 | 14 | 320 | 19.3 | 30.6 | 0.00 | 0.00 | 0.00 | 74 | 1021.4 |
| 20260510142621 | 14 | 1 | 11.3 | 17.7 | 0.00 | 0.00 | 0.00 | 73 | 1021.0 |
| 20260510142118 | 14 | 347 | 12.9 | 29.0 | 0.00 | 0.00 | 0.00 | 73 | 1021.1 |
| 20260510141615 | 15 | 285 | 11.3 | 30.6 | 0.00 | 0.00 | 0.00 | 72 | 1021.1 |
| 20260510141113 | 15 | 10 | 9.7 | 22.5 | 0.00 | 0.00 | 0.00 | 74 | 1021.0 |
| 20260510140609 | 15 | 317 | 19.3 | 30.6 | 0.00 | 0.00 | 0.00 | 74 | 1021.3 |
| 20260510140109 | 15 | 57 | 14.5 | 22.5 | 0.00 | 0.00 | 0.00 | 73 | 1021.3 |
| 20260510135604 | 15 | 319 | 14.5 | 17.7 | 0.00 | 0.00 | 0.00 | 74 | 1020.8 |
| 20260510135101 | 15 | 47 | 12.9 | 35.4 | 0.00 | 0.00 | 0.00 | 73 | 1020.8 |
| 20260510134558 | 15 | 47 | 16.1 | 27.4 | 0.00 | 0.00 | 0.00 | 72 | 1020.6 |
| 20260510134055 | 15 | 79 | 8.0 | 17.7 | 0.00 | 0.00 | 0.00 | 72 | 1020.4 |
| 20260510133551 | 15 | 32 | 4.8 | 24.1 | 0.00 | 0.00 | 0.00 | 72 | 1020.4 |
| 20260510133047 | 15 | 351 | 9.7 | 25.7 | 0.00 | 0.00 | 0.00 | 72 | 1020.5 |
| 20260510132544 | 15 | 355 | 4.8 | 24.1 | 0.00 | 0.00 | 0.00 | 72 | 1020.1 |
| 20260510132040 | 15 | 3 | 4.8 | 17.7 | 0.00 | 0.00 | 0.00 | 73 | 1020.0 |
| 20260510131538 | 15 | 40 | 9.7 | 29.0 | 0.00 | 0.00 | 0.00 | 73 | 1020.0 |
| 20260510131035 | 15 | 44 | 4.8 | 25.7 | 0.00 | 0.00 | 0.00 | 72 | 1019.3 |
| 20260510130531 | 15 | 12 | 8.0 | 14.5 | 0.00 | 0.00 | 0.00 | 72 | 1019.3 |
| 20260510130029 | 15 | 33 | 3.2 | 14.5 | 0.00 | 0.00 | 0.00 | 71 | 1019.1 |
| 20260510125525 | 15 | 16 | 4.8 | 16.1 | 0.00 | 0.00 | 0.00 | 71 | 1019.2 |
| 20260510125022 | 15 | 2 | 6.4 | 11.3 | 0.00 | 0.00 | 0.00 | 70 | 1019.0 |
| 20260510124518 | 15 | 315 | 6.4 | 17.7 | 0.00 | 0.00 | 0.00 | 70 | 1018.9 |
| 20260510124015 | 15 | 333 | 17.7 | 22.5 | 0.00 | 0.00 | 0.00 | 69 | 1018.9 |
| 20260510123510 | 15 | 326 | 6.4 | 24.1 | 0.00 | 0.00 | 0.00 | 69 | 1018.8 |
| 20260510123007 | 15 | 38 | 8.0 | 12.9 | 0.00 | 0.00 | 0.00 | 69 | 1018.7 |
| 20260510122502 | 14 | 2 | 8.0 | 22.5 | 0.00 | 0.00 | 0.00 | 68 | 1018.4 |
| 20260510121959 | 14 | 2 | 8.0 | 17.7 | 0.00 | 0.00 | 0.00 | 68 | 1018.5 |
| 20260510121456 | 14 | 326 | 9.7 | 17.7 | 0.00 | 0.00 | 0.00 | 68 | 1018.4 |
| 20260510120953 | 14 | 141 | 8.0 | 12.9 | 0.00 | 0.00 | 0.00 | 68 | 1018.2 |
| 20260510120450 | 14 | 70 | 4.8 | 12.9 | 0.00 | 0.00 | 0.00 | 69 | 1018.1 |
| 20260510115946 | 14 | 329 | 4.8 | 20.9 | 0.00 | 0.00 | 0.00 | 69 | 1018.0 |
| 20260510115444 | 14 | 4 | 3.2 | 12.9 | 0.00 | 0.00 | 0.00 | 68 | 1017.9 |
| 20260510114939 | 14 | 58 | 6.4 | 16.1 | 0.00 | 0.00 | 0.00 | 68 | 1017.4 |
| 20260510114436 | 15 | 63 | 19.3 | 27.4 | 0.00 | 0.00 | 0.00 | 68 | 1017.4 |
| 20260510113932 | 15 | 64 | 9.7 | 25.7 | 0.00 | 0.00 | 0.00 | 68 | 1017.2 |
| 20260510113427 | 15 | 39 | 9.7 | 16.1 | 0.00 | 0.00 | 0.00 | 67 | 1017.5 |
| 20260510112926 | 15 | 269 | 12.9 | 17.7 | 0.00 | 0.00 | 0.00 | 71 | 1017.3 |
| 20260510112422 | 16 | 321 | 8.0 | 14.5 | 0.00 | 0.00 | 0.00 | 78 | 1017.0 |
| 20260510111918 | 16 | 24 | 12.9 | 29.0 | 0.00 | 0.00 | 0.00 | 78 | 1017.1 |
| 20260510111414 | 16 | 44 | 17.7 | 27.4 | 0.00 | 0.00 | 0.00 | 79 | 1017.3 |
| 20260510110910 | 16 | 44 | 9.7 | 25.7 | 0.00 | 0.00 | 0.00 | 79 | 1017.0 |
| 20260510110407 | 16 | 5 | 4.8 | 22.5 | 0.00 | 0.00 | 0.00 | 78 | 1017.0 |
| 20260510105902 | 16 | 53 | 14.5 | 24.1 | 0.00 | 0.00 | 0.00 | 78 | 1016.5 |
| 20260510105357 | 16 | 48 | 14.5 | 27.4 | 0.00 | 0.00 | 0.00 | 79 | 1016.7 |
| 20260510104853 | 16 | 57 | 6.4 | 20.9 | 0.00 | 0.00 | 0.00 | 79 | 1016.6 |
| 20260510104350 | 16 | 62 | 11.3 | 22.5 | 0.00 | 0.00 | 0.00 | 79 | 1016.3 |
| 20260510103846 | 16 | 31 | 3.2 | 14.5 | 0.00 | 0.00 | 0.00 | 79 | 1016.2 |
| 20260510103343 | 16 | 60 | 3.2 | 22.5 | 0.00 | 0.00 | 0.00 | 78 | 1015.9 |
| 20260510102838 | 16 | 25 | 3.2 | 9.7 | 0.00 | 0.00 | 0.00 | 77 | 1016.2 |
| 20260510102329 | 16 | 70 | 3.2 | 14.5 | 0.00 | 0.00 | 0.00 | 77 | 1015.8 |
| 20260510101827 | 16 | 50 | 9.7 | 20.9 | 0.00 | 0.00 | 0.00 | 76 | 1015.8 |
| 20260510101325 | 16 | 44 | 1.6 | 20.9 | 0.00 | 0.00 | 0.00 | 75 | 1015.8 |
| 20260510100820 | 16 | 35 | 6.4 | 11.3 | 0.00 | 0.00 | 0.00 | 75 | 1015.3 |
| 20260510100318 | 17 | 33 | 6.4 | 14.5 | 0.00 | 0.00 | 0.00 | 75 | 1014.9 |
| 20260510095814 | 17 | 54 | 6.4 | 14.5 | 0.00 | 0.00 | 0.00 | 75 | 1014.9 |
| 20260510095309 | 17 | 49 | 14.5 | 24.1 | 0.00 | 0.00 | 0.00 | 74 | 1014.9 |
| 20260510094808 | 17 | 54 | 14.5 | 17.7 | 0.00 | 0.00 | 0.00 | 74 | 1015.0 |
| 20260510094303 | 17 | 58 | 11.3 | 14.5 | 0.00 | 0.00 | 0.00 | 74 | 1014.9 |
| 20260510093800 | 17 | 58 | 14.5 | 17.7 | 0.00 | 0.00 | 0.00 | 73 | 1014.7 |
| 20260510093257 | 17 | 56 | 6.4 | 22.5 | 0.00 | 0.00 | 0.00 | 72 | 1014.6 |
| 20260510092753 | 17 | 75 | 17.7 | 24.1 | 0.00 | 0.00 | 0.00 | 72 | 1014.5 |
| 20260510092249 | 18 | 44 | 12.9 | 30.6 | 0.00 | 0.00 | 0.00 | 71 | 1014.5 |
| 20260510091745 | 17 | 63 | 11.3 | 29.0 | 0.00 | 0.00 | 0.00 | 71 | 1014.4 |
| 20260510091242 | 18 | 87 | 11.3 | 29.0 | 0.00 | 0.00 | 0.00 | 71 | 1014.4 |
| 20260510090738 | 18 | 52 | 17.7 | 22.5 | 0.00 | 0.00 | 0.00 | 69 | 1014.2 |
| 20260510090235 | 18 | 60 | 11.3 | 24.1 | 0.00 | 0.00 | 0.00 | 68 | 1014.2 |
| 20260510085730 | 18 | 47 | 17.7 | 27.4 | 0.00 | 0.00 | 0.00 | 67 | 1014.4 |
| 20260510085225 | 18 | 356 | 14.5 | 27.4 | 0.00 | 0.00 | 0.00 | 66 | 1014.5 |
| 20260510084721 | 18 | 46 | 8.0 | 14.5 | 0.00 | 0.00 | 0.00 | 64 | 1014.1 |
| 20260510084219 | 18 | 77 | 9.7 | 20.9 | 0.00 | 0.00 | 0.00 | 62 | 1014.2 |
| 20260510083716 | 19 | 63 | 9.7 | 17.7 | 0.00 | 0.00 | 0.00 | 60 | 1014.0 |
| 20260510083213 | 19 | 36 | 17.7 | 25.7 | 0.00 | 0.00 | 0.00 | 59 | 1013.8 |
| 20260510082708 | 19 | 44 | 9.7 | 22.5 | 0.00 | 0.00 | 0.00 | 57 | 1013.7 |
| 20260510082205 | 19 | 54 | 12.9 | 22.5 | 0.00 | 0.00 | 0.00 | 56 | 1013.8 |
| 20260510081705 | 19 | 73 | 12.9 | 17.7 | 0.00 | 0.00 | 0.00 | 53 | 1013.8 |
| 20260510081201 | 19 | 57 | 9.7 | 16.1 | 0.00 | 0.00 | 0.00 | 48 | 1013.9 |
| 20260510080700 | 20 | 61 | 16.1 | 24.1 | 0.00 | 0.00 | 0.00 | 44 | 1013.7 |
| 20260510080157 | 20 | 41 | 14.5 | 17.7 | 0.00 | 0.00 | 0.00 | 38 | 1013.5 |
| 20260510075654 | 21 | 52 | 14.5 | 25.7 | 0.00 | 0.00 | 0.00 | 34 | 1013.6 |
| 20260510075152 | 21 | 52 | 14.5 | 29.0 | 0.00 | 0.00 | 0.00 | 31 | 1013.6 |
| 20260510074649 | 21 | 87 | 12.9 | 17.7 | 0.00 | 0.00 | 0.00 | 26 | 1013.6 |
| 20260510074144 | 21 | 59 | 12.9 | 22.5 | 0.00 | 0.00 | 0.00 | 25 | 1013.7 |
| 20260510073641 | 21 | 42 | 11.3 | 17.7 | 0.00 | 0.00 | 0.00 | 24 | 1013.7 |
| 20260510073137 | 22 | 45 | 11.3 | 22.5 | 0.00 | 0.00 | 0.00 | 23 | 1013.9 |
| 20260510072633 | 21 | 355 | 3.2 | 12.9 | 0.00 | 0.00 | 0.00 | 23 | 1013.9 |
| 20260510072130 | 22 | 330 | 4.8 | 6.4 | 0.00 | 0.00 | 0.00 | 22 | 1013.9 |
| 20260510071626 | 21 | 66 | 4.8 | 14.5 | 0.00 | 0.00 | 0.00 | 22 | 1014.2 |
| 20260510071124 | 21 | 1 | 3.2 | 4.8 | 0.00 | 0.00 | 0.00 | 23 | 1014.4 |
| 20260510070621 | 21 | 57 | 8.0 | 12.9 | 0.00 | 0.00 | 0.00 | 22 | 1014.1 |
| 20260510070118 | 20 | 14 | 1.6 | 12.9 | 0.00 | 0.00 | 0.00 | 23 | 1014.1 |
| 20260510065614 | 22 | 349 | 1.6 | 9.7 | 0.00 | 0.00 | 0.00 | 21 | 1014.0 |
| 20260510065110 | 22 | 97 | 9.7 | 11.3 | 0.00 | 0.00 | 0.00 | 21 | 1013.8 |
| 20260510064606 | 22 | 125 | 6.4 | 6.4 | 0.00 | 0.00 | 0.00 | 21 | 1013.9 |
| 20260510064104 | 22 | 160 | 0.0 | 6.4 | 0.00 | 0.00 | 0.00 | 21 | 1013.6 |
| 20260510063600 | 22 | 123 | 3.2 | 9.7 | 0.00 | 0.00 | 0.00 | 21 | 1013.6 |
| 20260510063058 | 22 | 111 | 3.2 | 9.7 | 0.00 | 0.00 | 0.00 | 21 | 1013.6 |
| 20260510062553 | 22 | 132 | 6.4 | 12.9 | 0.00 | 0.00 | 0.00 | 21 | 1013.2 |
| 20260510062048 | 22 | 101 | 6.4 | 9.7 | 0.00 | 0.00 | 0.00 | 21 | 1013.3 |
| 20260510061545 | 22 | 111 | 4.8 | 4.8 | 0.00 | 0.00 | 0.00 | 21 | 1013.2 |
| 20260510061042 | 23 | 166 | 4.8 | 6.4 | 0.00 | 0.00 | 0.00 | 20 | 1013.5 |
| 20260510060538 | 23 | 97 | 6.4 | 9.7 | 0.00 | 0.00 | 0.00 | 20 | 1013.5 |
| 20260510060035 | 22 | 145 | 4.8 | 6.4 | 0.00 | 0.00 | 0.00 | 20 | 1013.3 |
| 20260510055531 | 22 | 195 | 0.0 | 4.8 | 0.00 | 0.00 | 0.00 | 21 | 1013.6 |
| 20260510055029 | 22 | 153 | 0.0 | 0.0 | 0.00 | 0.00 | 0.00 | 21 | 1013.3 |
| 20260510054525 | 22 | 153 | 0.0 | 0.0 | 0.00 | 0.00 | 0.00 | 21 | 1013.2 |
| 20260510054020 | 22 | 165 | 3.2 | 4.8 | 0.00 | 0.00 | 0.00 | 21 | 1013.1 |
| 20260510053515 | 22 | 138 | 0.0 | 0.0 | 0.00 | 0.00 | 0.00 | 23 | 1013.2 |
| 20260510053012 | 22 | 136 | 0.0 | 0.0 | 0.00 | 0.00 | 0.00 | 22 | 1013.1 |
| 20260510052508 | 22 | 138 | 1.6 | 1.6 | 0.00 | 0.00 | 0.00 | 21 | 1013.2 |
| 20260510052004 | 23 | 219 | 1.6 | 3.2 | 0.00 | 0.00 | 0.00 | 20 | 1013.2 |
| 20260510051459 | 23 | 280 | 0.0 | 0.0 | 0.00 | 0.00 | 0.00 | 20 | 1013.2 |
| 20260510050956 | 24 | 253 | 1.6 | 3.2 | 0.00 | 0.00 | 0.00 | 20 | 1013.3 |
| 20260510050454 | 24 | 114 | 1.6 | 3.2 | 0.00 | 0.00 | 0.00 | 19 | 1013.3 |
| 20260510045950 | 25 | 78 | 3.2 | 4.8 | 0.00 | 0.00 | 0.00 | 18 | 1013.2 |
| 20260510045448 | 25 | 100 | 0.0 | 1.6 | 0.00 | 0.00 | 0.00 | 18 | 1013.6 |
| 20260510044944 | 24 | 70 | 3.2 | 4.8 | 0.00 | 0.00 | 0.00 | 18 | 1013.3 |
| 20260510044441 | 23 | 322 | 0.0 | 4.8 | 0.00 | 0.00 | 0.00 | 19 | 1013.5 |
| 20260510043938 | 22 | 0 | 3.2 | 4.8 | 0.00 | 0.00 | 0.00 | 20 | 1013.6 |
| 20260510043434 | 22 | 8 | 1.6 | 3.2 | 0.00 | 0.00 | 0.00 | 20 | 1013.2 |
| 20260510042932 | 21 | 337 | 4.8 | 6.4 | 0.00 | 0.00 | 0.00 | 21 | 1013.0 |
| 20260510042428 | 21 | 0 | 1.6 | 3.2 | 0.00 | 0.00 | 0.00 | 22 | 1013.1 |
| 20260510041924 | 20 | 240 | 0.0 | 0.0 | 0.00 | 0.00 | 0.00 | 24 | 1012.8 |
| 20260510041421 | 21 | 240 | 0.0 | 0.0 | 0.00 | 0.00 | 0.00 | 24 | 1012.8 |
| 20260510040919 | 21 | 240 | 0.0 | 0.0 | 0.00 | 0.00 | 0.00 | 23 | 1012.9 |
| 20260510040415 | 21 | 240 | 0.0 | 0.0 | 0.00 | 0.00 | 0.00 | 23 | 1012.7 |
| 20260510035911 | 21 | 240 | 0.0 | 0.0 | 0.00 | 0.00 | 0.00 | 23 | 1012.8 |
| 20260510035408 | 22 | 240 | 0.0 | 0.0 | 0.00 | 0.00 | 0.00 | 22 | 1012.6 |
| 20260510034902 | 22 | 240 | 0.0 | 0.0 | 0.00 | 0.00 | 0.00 | 22 | 1012.8 |
| 20260510034401 | 22 | 240 | 0.0 | 0.0 | 0.00 | 0.00 | 0.00 | 21 | 1012.6 |
| 20260510033857 | 22 | 240 | 0.0 | 0.0 | 0.00 | 0.00 | 0.00 | 21 | 1012.7 |
| 20260510033354 | 22 | 240 | 0.0 | 0.0 | 0.00 | 0.00 | 0.00 | 21 | 1012.7 |
| 20260510032850 | 22 | 240 | 0.0 | 0.0 | 0.00 | 0.00 | 0.00 | 20 | 1012.8 |
| 20260510032347 | 23 | 305 | 0.0 | 0.0 | 0.00 | 0.00 | 0.00 | 20 | 1012.6 |
| 20260510031837 | 23 | 305 | 0.0 | 0.0 | 0.00 | 0.00 | 0.00 | 20 | 1012.4 |
| 20260510031333 | 23 | 284 | 0.0 | 0.0 | 0.00 | 0.00 | 0.00 | 20 | 1012.7 |
| 20260510030833 | 23 | 282 | 0.0 | 0.0 | 0.00 | 0.00 | 0.00 | 20 | 1012.2 |
| 20260510030329 | 23 | 263 | 0.0 | 0.0 | 0.00 | 0.00 | 0.00 | 19 | 1012.3 |
| 20260510025827 | 24 | 255 | 0.0 | 4.8 | 0.00 | 0.00 | 0.00 | 19 | 1012.1 |
| 20260510025324 | 23 | 236 | 1.6 | 4.8 | 0.00 | 0.00 | 0.00 | 19 | 1012.1 |
| 20260510024821 | 23 | 254 | 0.0 | 4.8 | 0.00 | 0.00 | 0.00 | 19 | 1011.8 |
| 20260510024318 | 23 | 245 | 0.0 | 0.0 | 0.00 | 0.00 | 0.00 | 19 | 1012.0 |
| 20260510023814 | 23 | 238 | 1.6 | 3.2 | 0.00 | 0.00 | 0.00 | 19 | 1011.9 |
| 20260510023310 | 24 | 266 | 0.0 | 0.0 | 0.00 | 0.00 | 0.00 | 19 | 1011.6 |
| 20260510022808 | 25 | 226 | 0.0 | 0.0 | 0.00 | 0.00 | 0.00 | 18 | 1011.6 |
| 20260510022307 | 25 | 277 | 0.0 | 0.0 | 0.00 | 0.00 | 0.00 | 18 | 1011.6 |
| 20260510021806 | 25 | 219 | 0.0 | 3.2 | 0.00 | 0.00 | 0.00 | 18 | 1011.6 |
| 20260510021304 | 25 | 222 | 0.0 | 0.0 | 0.00 | 0.00 | 0.00 | 17 | 1011.6 |
| 20260510020800 | 26 | 217 | 3.2 | 4.8 | 0.00 | 0.00 | 0.00 | 17 | 1011.6 |
| 20260510020259 | 26 | 242 | 3.2 | 4.8 | 0.00 | 0.00 | 0.00 | 17 | 1011.5 |
| 20260510015755 | 26 | 215 | 8.0 | 14.5 | 0.00 | 0.00 | 0.00 | 17 | 1011.5 |
| 20260510015252 | 27 | 160 | 4.8 | 11.3 | 0.00 | 0.00 | 0.00 | 16 | 1011.4 |
| 20260510014747 | 27 | 234 | 8.0 | 11.3 | 0.00 | 0.00 | 0.00 | 16 | 1011.5 |
| 20260510014245 | 28 | 278 | 6.4 | 12.9 | 0.00 | 0.00 | 0.00 | 15 | 1011.2 |
| 20260510013741 | 27 | 262 | 3.2 | 12.9 | 0.00 | 0.00 | 0.00 | 16 | 1011.0 |
| 20260510013237 | 27 | 178 | 6.4 | 9.7 | 0.00 | 0.00 | 0.00 | 16 | 1011.3 |
| 20260510012737 | 27 | 209 | 3.2 | 11.3 | 0.00 | 0.00 | 0.00 | 16 | 1011.4 |
| 20260510012232 | 27 | 258 | 1.6 | 9.7 | 0.00 | 0.00 | 0.00 | 16 | 1011.5 |
| 20260510011732 | 28 | 240 | 3.2 | 11.3 | 0.00 | 0.00 | 0.00 | 16 | 1011.5 |
| 20260510011228 | 28 | 280 | 3.2 | 6.4 | 0.00 | 0.00 | 0.00 | 16 | 1011.3 |
| 20260510010725 | 28 | 147 | 8.0 | 20.9 | 0.00 | 0.00 | 0.00 | 15 | 1011.4 |
| 20260510010221 | 28 | 250 | 3.2 | 14.5 | 0.00 | 0.00 | 0.00 | 15 | 1011.3 |
| 20260510005718 | 29 | 322 | 8.0 | 12.9 | 0.00 | 0.00 | 0.00 | 14 | 1011.4 |
| 20260510005214 | 30 | 239 | 9.7 | 17.7 | 0.00 | 0.00 | 0.00 | 14 | 1011.3 |
| 20260510004713 | 30 | 245 | 6.4 | 12.9 | 0.00 | 0.00 | 0.00 | 14 | 1011.4 |
| 20260510004211 | 30 | 291 | 4.8 | 6.4 | 0.00 | 0.00 | 0.00 | 14 | 1011.2 |
| 20260510003708 | 30 | 259 | 1.6 | 12.9 | 0.00 | 0.00 | 0.00 | 14 | 1011.2 |
| 20260510003203 | 31 | 215 | 9.7 | 16.1 | 0.00 | 0.00 | 0.00 | 14 | 1011.3 |
| 20260510002657 | 30 | 262 | 6.4 | 14.5 | 0.00 | 0.00 | 0.00 | 14 | 1011.2 |
| 20260510002155 | 30 | 237 | 4.8 | 17.7 | 0.00 | 0.00 | 0.00 | 14 | 1011.2 |
| 20260510001652 | 30 | 279 | 9.7 | 20.9 | 0.00 | 0.00 | 0.00 | 14 | 1011.5 |
| 20260510001150 | 30 | 238 | 3.2 | 12.9 | 0.00 | 0.00 | 0.00 | 14 | 1011.0 |
| 20260510000645 | 30 | 197 | 1.6 | 4.8 | 0.00 | 0.00 | 0.00 | 14 | 1011.3 |
| 20260510000143 | 30 | 180 | 11.3 | 14.5 | 0.00 | 0.00 | 0.00 | 14 | 1011.6 |
| 20260509235639 | 30 | 60 | 4.8 | 22.5 | 0.00 | 0.00 | 0.00 | 14 | 1011.4 |
| 20260509235136 | 31 | 219 | 14.5 | 24.1 | 0.00 | 0.00 | 0.00 | 14 | 1011.1 |
| 20260509234631 | 31 | 261 | 4.8 | 14.5 | 0.00 | 0.00 | 0.00 | 13 | 1011.1 |
| 20260509234129 | 31 | 257 | 6.4 | 16.1 | 0.00 | 0.00 | 0.00 | 13 | 1011.2 |
| 20260509233627 | 31 | 236 | 6.4 | 17.7 | 0.00 | 0.00 | 0.00 | 13 | 1011.0 |
| 20260509233124 | 31 | 267 | 6.4 | 12.9 | 0.00 | 0.00 | 0.00 | 13 | 1011.2 |
| 20260509232620 | 32 | 271 | 3.2 | 11.3 | 0.00 | 0.00 | 0.00 | 12 | 1011.0 |
| 20260509232117 | 32 | 242 | 4.8 | 14.5 | 0.00 | 0.00 | 0.00 | 12 | 1011.0 |
| 20260509231614 | 33 | 202 | 1.6 | 6.4 | 0.00 | 0.00 | 0.00 | 12 | 1010.9 |
| 20260509231112 | 32 | 271 | 6.4 | 14.5 | 0.00 | 0.00 | 0.00 | 12 | 1010.9 |
| 20260509230608 | 32 | 310 | 4.8 | 12.9 | 0.00 | 0.00 | 0.00 | 12 | 1011.2 |
| 20260509230106 | 32 | 188 | 3.2 | 6.4 | 0.00 | 0.00 | 0.00 | 12 | 1011.1 |
| 20260509225601 | 33 | 216 | 0.0 | 9.7 | 0.00 | 0.00 | 0.00 | 11 | 1011.2 |
| 20260509225056 | 32 | 296 | 4.8 | 9.7 | 0.00 | 0.00 | 0.00 | 12 | 1011.1 |
| 20260509224552 | 32 | 271 | 9.7 | 14.5 | 0.00 | 0.00 | 0.00 | 12 | 1011.0 |
| 20260509224050 | 32 | 64 | 8.0 | 12.9 | 0.00 | 0.00 | 0.00 | 11 | 1011.1 |
| 20260509223546 | 33 | 315 | 3.2 | 9.7 | 0.00 | 0.00 | 0.00 | 11 | 1011.3 |
| 20260509223044 | 32 | 308 | 3.2 | 6.4 | 0.00 | 0.00 | 0.00 | 11 | 1011.4 |
| 20260509222540 | 33 | 270 | 3.2 | 9.7 | 0.00 | 0.00 | 0.00 | 11 | 1011.1 |
| 20260509222036 | 33 | 226 | 4.8 | 11.3 | 0.00 | 0.00 | 0.00 | 11 | 1011.4 |
| 20260509221532 | 33 | 337 | 6.4 | 16.1 | 0.00 | 0.00 | 0.00 | 11 | 1011.3 |
| 20260509221028 | 33 | 229 | 6.4 | 11.3 | 0.00 | 0.00 | 0.00 | 10 | 1011.4 |
| 20260509220524 | 32 | 192 | 4.8 | 9.7 | 0.00 | 0.00 | 0.00 | 11 | 1011.8 |
| 20260509220020 | 33 | 285 | 11.3 | 16.1 | 0.00 | 0.00 | 0.00 | 11 | 1011.9 |
| 20260509215515 | 33 | 304 | 8.0 | 11.3 | 0.00 | 0.00 | 0.00 | 10 | 1011.6 |
| 20260509215013 | 34 | 331 | 11.3 | 16.1 | 0.00 | 0.00 | 0.00 | 11 | 1011.5 |
| 20260509214510 | 33 | 245 | 4.8 | 16.1 | 0.00 | 0.00 | 0.00 | 11 | 1011.8 |
| 20260509214007 | 33 | 281 | 12.9 | 22.5 | 0.00 | 0.00 | 0.00 | 11 | 1011.9 |
| 20260509213503 | 33 | 263 | 9.7 | 20.9 | 0.00 | 0.00 | 0.00 | 10 | 1011.9 |
| 20260509213000 | 33 | 40 | 6.4 | 16.1 | 0.00 | 0.00 | 0.00 | 11 | 1012.1 |
| 20260509212457 | 33 | 345 | 12.9 | 25.7 | 0.00 | 0.00 | 0.00 | 11 | 1012.0 |
| 20260509211954 | 32 | 310 | 17.7 | 24.1 | 0.00 | 0.00 | 0.00 | 11 | 1012.3 |
| 20260509211449 | 31 | 338 | 8.0 | 27.4 | 0.00 | 0.00 | 0.00 | 11 | 1012.2 |
| 20260509210946 | 33 | 277 | 9.7 | 22.5 | 0.00 | 0.00 | 0.00 | 11 | 1012.3 |
| 20260509210443 | 33 | 335 | 6.4 | 27.4 | 0.00 | 0.00 | 0.00 | 11 | 1012.6 |
| 20260509205939 | 32 | 313 | 6.4 | 22.5 | 0.00 | 0.00 | 0.00 | 11 | 1012.7 |
| 20260509205433 | 32 | 240 | 8.0 | 22.5 | 0.00 | 0.00 | 0.00 | 11 | 1012.7 |
| 20260509204929 | 33 | 327 | 9.7 | 20.9 | 0.00 | 0.00 | 0.00 | 11 | 1012.8 |
| 20260509204426 | 33 | 11 | 8.0 | 12.9 | 0.00 | 0.00 | 0.00 | 11 | 1012.7 |
| 20260509203923 | 33 | 217 | 1.6 | 14.5 | 0.00 | 0.00 | 0.00 | 11 | 1012.9 |
| 20260509203418 | 32 | 236 | 14.5 | 17.7 | 0.00 | 0.00 | 0.00 | 11 | 1013.1 |
| 20260509202916 | 32 | 316 | 19.3 | 29.0 | 0.00 | 0.00 | 0.00 | 11 | 1013.0 |
| 20260509202412 | 32 | 308 | 12.9 | 14.5 | 0.00 | 0.00 | 0.00 | 11 | 1013.1 |
| 20260509201907 | 31 | 323 | 6.4 | 12.9 | 0.00 | 0.00 | 0.00 | 13 | 1013.2 |
| 20260509201403 | 32 | 314 | 16.1 | 27.4 | 0.00 | 0.00 | 0.00 | 12 | 1013.3 |
| 20260509200900 | 32 | 302 | 6.4 | 20.9 | 0.00 | 0.00 | 0.00 | 11 | 1013.5 |
| 20260509200400 | 32 | 316 | 9.7 | 16.1 | 0.00 | 0.00 | 0.00 | 12 | 1013.6 |
| 20260509195857 | 32 | 347 | 12.9 | 20.9 | 0.00 | 0.00 | 0.00 | 11 | 1013.6 |
| 20260509195357 | 31 | 295 | 6.4 | 17.7 | 0.00 | 0.00 | 0.00 | 12 | 1013.5 |
| 20260509194856 | 31 | 272 | 6.4 | 14.5 | 0.00 | 0.00 | 0.00 | 13 | 1013.6 |
| 20260509194353 | 31 | 111 | 3.2 | 20.9 | 0.00 | 0.00 | 0.00 | 12 | 1013.8 |
| 20260509193850 | 32 | 296 | 14.5 | 20.9 | 0.00 | 0.00 | 0.00 | 12 | 1013.8 |
| 20260509193349 | 33 | 321 | 17.7 | 27.4 | 0.00 | 0.00 | 0.00 | 12 | 1013.6 |
| 20260509192846 | 32 | 235 | 4.8 | 14.5 | 0.00 | 0.00 | 0.00 | 12 | 1013.8 |
| 20260509192342 | 33 | 223 | 12.9 | 20.9 | 0.00 | 0.00 | 0.00 | 13 | 1013.9 |
| 20260509191837 | 31 | 269 | 4.8 | 11.3 | 0.00 | 0.00 | 0.00 | 13 | 1013.7 |
| 20260509191333 | 32 | 352 | 16.1 | 24.1 | 0.00 | 0.00 | 0.00 | 12 | 1013.9 |
| 20260509190829 | 32 | 232 | 4.8 | 12.9 | 0.00 | 0.00 | 0.00 | 12 | 1013.8 |
| 20260509190326 | 31 | 303 | 14.5 | 17.7 | 0.00 | 0.00 | 0.00 | 14 | 1013.9 |
| 20260509185824 | 32 | 316 | 9.7 | 16.1 | 0.00 | 0.00 | 0.00 | 13 | 1014.1 |
| 20260509185320 | 32 | 255 | 9.7 | 17.7 | 0.00 | 0.00 | 0.00 | 12 | 1014.2 |
| 20260509184818 | 31 | 285 | 6.4 | 14.5 | 0.00 | 0.00 | 0.00 | 13 | 1014.4 |
| 20260509184315 | 31 | 320 | 4.8 | 17.7 | 0.00 | 0.00 | 0.00 | 14 | 1014.4 |
| 20260509183811 | 31 | 244 | 6.4 | 9.7 | 0.00 | 0.00 | 0.00 | 14 | 1014.2 |
| 20260509183306 | 31 | 207 | 6.4 | 17.7 | 0.00 | 0.00 | 0.00 | 15 | 1014.5 |
| 20260509182802 | 31 | 266 | 3.2 | 16.1 | 0.00 | 0.00 | 0.00 | 15 | 1014.5 |
| 20260509182300 | 32 | 253 | 6.4 | 9.7 | 0.00 | 0.00 | 0.00 | 15 | 1014.5 |
| 20260509181757 | 31 | 288 | 3.2 | 22.5 | 0.00 | 0.00 | 0.00 | 15 | 1014.6 |
| 20260509181254 | 31 | 271 | 11.3 | 14.5 | 0.00 | 0.00 | 0.00 | 16 | 1014.6 |
| 20260509180752 | 31 | 314 | 16.1 | 25.7 | 0.00 | 0.00 | 0.00 | 16 | 1014.7 |